Flag for Germany

Past Weather in Greven, North Rhine-Westphalia, Germany — Yesterday and Last 2 Weeks

Now
72 °F

Scattered clouds.


Feels Like: 75 °F
Forecast: 65 / 53 °F
Wind: 22 mph from West

Location: Muenster / Osnabrueck

Current Time: Jul 5, 2020 at 5:00:56 pm

Latest Report: Jul 5, 2020 at 4:20 pm


Visibility: N/A

Pressure: 29.83 "Hg

Humidity: 69%

Dew Point: 61 °F

Location of GrevenLocation

Past Weather in Greven — Graph

°F

Greven Temperature Yesterday

Maximum temperature yesterday: 70 °F (at 1:20 pm)
Minimum temperature yesterday: 61 °F (at 6:20 am)
Average temperature yesterday: 65 °F

High & Low Weather Summary for the Past Weeks

 TemperatureHumidityPressure
High84 °F (Jun 26, 3:20 pm)100% (Jun 21, 4:50 am)30.30 "Hg (Jun 21, 4:50 am)
Low50 °F (Jun 29, 5:20 am)28% (Jun 24, 4:50 pm)29.68 "Hg (Jul 1, 7:20 am)
Average68 °F66%29.97 "Hg
* Reported Jun 20 3:20 pm — Jul 5 3:50 pm, Greven. Weather by CustomWeather, © 2020

Note: Actual official high and low records may vary slightly from our data, if they occured in-between our weather recording intervals... More about our weather records

Greven Weather History for the Previous 24 Hours

Scroll right to see more
 ConditionsComfort  
Time TempWeatherWind HumidityBarometerVisibility
3:50 pm
Sun, Jul 5
70 °FScattered clouds.18 mph78%29.80 "HgN/A
2:20 pm68 °FDrizzle. Partly sunny.18 mph83%29.80 "HgN/A
1:50 pm68 °FDrizzle. Broken clouds.18 mph88%29.80 "HgN/A
1:20 pm66 °FDrizzle. Partly sunny.13 mph94%29.80 "Hg3 mi
12:50 pm68 °FDrizzle. Broken clouds.17 mph83%29.80 "HgN/A
12:20 pm68 °FPartly sunny.15 mph83%29.83 "HgN/A
11:50 am66 °FDrizzle. Partly sunny.16 mph88%29.83 "HgN/A
11:20 am68 °FDrizzle. Partly sunny.21 mph78%29.83 "HgN/A
10:50 am68 °FDrizzle. Overcast.17 mph78%29.80 "HgN/A
10:20 am68 °FOvercast.18 mph78%29.80 "HgN/A
9:50 am66 °FOvercast.21 mph83%29.80 "HgN/A
9:20 am66 °FPartly sunny.17 mph83%29.80 "HgN/A
8:50 am66 °FPartly sunny.21 mph78%29.80 "HgN/A
8:20 am66 °FPartly sunny.17 mph83%29.80 "HgN/A
7:50 am64 °FDrizzle. Partly sunny.15 mph88%29.80 "HgN/A
7:20 am66 °FLight rain. Partly sunny.16 mph83%29.80 "HgN/A
6:50 am66 °FPartly sunny.18 mph83%29.80 "HgN/A
6:20 am64 °FBroken clouds.14 mph88%29.80 "HgN/A
5:50 am66 °FPartly sunny.20 mph78%29.80 "HgN/A
5:20 am66 °FBroken clouds.16 mph83%29.80 "HgN/A
4:50 am66 °FPartly cloudy.14 mph83%29.80 "HgN/A
4:20 am66 °FPartly cloudy.14 mph88%29.83 "HgN/A
3:50 am66 °FLight rain. Partly cloudy.15 mph88%29.80 "HgN/A
3:20 am66 °FLight rain. Partly cloudy.15 mph88%29.83 "HgN/A
2:50 am66 °FLight rain. Passing clouds.14 mph88%29.83 "HgN/A
2:20 am66 °FPassing clouds.12 mph88%29.83 "HgN/A
1:50 am66 °FPassing clouds.14 mph88%29.86 "Hg5 mi
1:20 am66 °FPassing clouds.13 mph88%29.86 "HgN/A
12:50 am66 °FPartly cloudy.14 mph88%29.86 "HgN/A
12:20 am64 °FPartly cloudy.13 mph94%29.86 "HgN/A
11:50 pm
Sat, Jul 4
64 °FLight rain. Partly cloudy.14 mph94%29.86 "HgN/A
11:20 pm64 °FPartly cloudy.12 mph94%29.86 "HgN/A
10:50 pm64 °FLight rain. Passing clouds.12 mph94%29.89 "HgN/A
10:20 pm66 °FPassing clouds.14 mph83%29.89 "HgN/A
9:50 pm66 °FPartly sunny.12 mph83%29.89 "HgN/A
9:20 pm66 °FScattered clouds.15 mph83%29.89 "HgN/A
8:50 pm68 °FLight rain. Partly sunny.13 mph73%29.89 "HgN/A
8:20 pm68 °FPartly sunny.13 mph73%29.89 "HgN/A
7:50 pm68 °FPartly sunny.14 mph73%29.89 "HgN/A
7:20 pm68 °FLight rain. Partly sunny.13 mph73%29.89 "HgN/A
6:50 pm68 °FPartly sunny.14 mph73%29.89 "HgN/A
6:20 pm68 °FPartly sunny.13 mph73%29.92 "HgN/A
5:50 pm66 °FPartly sunny.14 mph78%29.92 "HgN/A
5:20 pm66 °FBroken clouds.15 mph78%29.92 "HgN/A
Weather by CustomWeather, © 2020

See weather overview